Location: Killam
(52.7910°N, 111.8608°W)
Time: 06:05:28
(UTC+00:00)

ISS - Visible Passes

Search period start: 20 January 2026 00:00
Search period end: 30 January 2026 00:00
Orbit: 413 x 424 km, 51.6° (Epoch: 19 January)

Date Brightness Start Highest point End Pass type
(mag) Time Alt. Az. Time Alt. Az. Time Alt. Az.
20 Jan -3.6 01:24:10 10° WSW 01:27:28 64° S 01:28:58 29° E visible
20 Jan -1.0 03:00:50 10° W 03:01:55 19° W 03:01:55 19° W visible
21 Jan -3.3 00:36:24 10° WSW 00:39:40 54° SSE 00:42:57 10° E visible
21 Jan -3.5 02:13:00 10° W 02:16:01 65° SW 02:16:01 65° SW visible
22 Jan -3.7 01:25:08 10° W 01:28:28 74° S 01:30:07 27° E visible
22 Jan -1.0 03:01:53 10° W 03:03:04 20° W 03:03:04 20° W visible
23 Jan -3.6 00:37:16 10° WSW 00:40:36 71° S 00:43:56 10° E visible
23 Jan -3.4 02:13:58 10° W 02:17:10 57° SSW 02:17:10 57° SSW visible
24 Jan -3.6 01:26:03 10° W 01:29:23 67° S 01:31:18 23° ESE visible
24 Jan -1.1 03:02:55 10° W 03:04:15 19° WSW 03:04:15 19° WSW visible
25 Jan -3.6 00:38:06 10° W 00:41:27 73° S 00:44:48 10° E visible
25 Jan -2.7 02:14:54 10° W 02:18:01 37° SSW 02:18:26 35° S visible
26 Jan -2.9 01:26:53 10° W 01:30:07 47° SSW 01:32:41 15° SE visible
26 Jan -0.9 03:04:18 10° WSW 03:05:38 14° SW 03:05:38 14° SW visible
27 Jan -3.2 00:38:52 10° W 00:42:11 58° SSW 00:45:28 10° ESE visible
27 Jan -1.5 02:15:55 10° W 02:18:32 21° SSW 02:19:59 16° S visible
28 Jan -1.9 01:27:43 10° W 01:30:40 29° SSW 01:33:36 10° SSE visible
29 Jan -2.3 00:39:36 10° W 00:42:44 38° SSW 00:45:51 10° SE visible
29 Jan -0.6 02:17:55 10° WSW 02:18:48 11° SW 02:19:42 10° SSW visible
